This demonstration page uses our WeatherBlox Daily Observations layout. Learn more.

Left ArrowRight Arrow

Hourly Observations for January 23, 2016

Temp ( °F °C ) Dew Point ( °F °C ) Humidity (%) Winds ( mph kmh ) Pressure ( in mb ) Visibility ( mi km ) Precip ( " mm )
12:53 am 00:53 Cloudy with Mist and Fog 20 -6.7 18 -7.8 92 92 SSW 9 15 30.30 1026 3 4 0.00 0.00
1:27 am 01:27 Cloudy with Mist and Fog 19 -7 18 -8 93 93 SSW 9 15 30.36 1028 2 2 0.00 0.00
1:50 am 01:50 Cloudy with Mist and Fog 21 -6 19 -7 93 93 S 7 11 30.33 1027 2 3 0.00 0.00
1:53 am 01:53 Cloudy with Mist and Fog 21 -6.1 19 -7.2 92 92 SSW 8 13 30.28 1025 3 4 0.00 0.00
2:06 am 02:06 Cloudy with Mist and Fog 21 -6 19 -7 93 93 SSW 8 13 30.30 1026 4 6 0.00 0.00
2:21 am 02:21 Cloudy with Mist and Fog 21 -6.1 19 -7.2 92 92 SSW 10 17 30.30 1026 2 3 0.00 0.00
2:53 am 02:53 Cloudy with Mist and Fog 22 -5.6 19 -7.2 89 89 SSW 12 19 30.24 1024 2 3 0.00 0.00
3:09 am 03:09 Cloudy with Mist and Fog 22 -5.6 19 -7.2 89 89 S 10 17 30.27 1025 1 2 0.00 0.00
3:53 am 03:53 Cloudy with Mist and Fog 23 -5 19 -7.2 85 85 S 12 19 30.21 1023 1 2 0.00 0.00
4:53 am 04:53 Cloudy with Mist and Fog 23 -5 19 -7.2 85 85 S 10 17 30.20 1023 1 2 0.00 0.00
5:53 am 05:53 Cloudy with Mist and Fog 23 -5 19 -7.2 85 85 SSW 13 20 30.19 1022 2 2 0.00 0.00
6:53 am 06:53 Cloudy with Haze 24 -4.4 19 -7.2 81 81 SSW 12 19 30.18 1022 2 3 0.00 0.00
7:24 am 07:24 Cloudy with Mist and Fog 25 -4 19 -7 80 80 SSW 14 22 30.21 1023 3 4 0.00 0.00
7:34 am 07:34 Cloudy with Mist and Fog 24 -4.4 20 -6.7 84 84 SSW 10 17 30.21 1023 4 6 0.00 0.00
7:53 am 07:53 Cloudy with Haze 25 -3.9 20 -6.7 81 81 S 12 19 30.15 1021 4 6 0.00 0.00
8:05 am 08:05 Cloudy with Haze 25 -3.9 20 -6.7 81 81 S 13 20 30.21 1023 2 3 0.00 0.00
8:53 am 08:53 Cloudy with Haze 25 -3.9 20 -6.7 81 81 SSW 15 24 30.14 1021 1 2 0.00 0.00
9:40 am 09:40 Cloudy with Mist and Fog 25 -4 21 -6 86 86 SSW 16 26 30.18 1022 1 1 0.00 0.00
9:49 am 09:49 Cloudy with Haze 27 -3 21 -6 80 80 SSW 15 24 30.18 1022 1 2 0.00 0.00
9:53 am 09:53 Cloudy with Haze 26 -3.3 21 -6.1 81 81 SSW 14 22 30.14 1021 1 2 0.00 0.00
10:37 am 10:37 Cloudy with Mist and Fog 26 -3.3 22 -5.6 84 84 SSW 17 28 30.15 1021 3 5 0.00 0.00
10:53 am 10:53 Cloudy with Haze 27 -2.8 22 -5.6 81 81 SSW 20 31 30.11 1020 3 5 0.00 0.00
11:53 am 11:53 Cloudy 28 -2.2 22 -5.6 78 78 SSW 17 28 30.09 1019 8 13 0.00 0.00
12:04 pm 12:04 Cloudy 28 -2 21 -6 74 74 SSW 15 24 30.12 1020 7 11 0.00 0.00
12:53 pm 12:53 Cloudy 27 -2.8 22 -5.6 81 81 SSW 16 26 30.04 1017 8 13 0.00 0.00
1:53 pm 13:53 Cloudy 27 -2.8 23 -5 85 85 SSW 16 26 30.02 1017 8 13 0.00 0.00
2:53 pm 14:53 Cloudy 27 -2.8 24 -4.4 89 89 SSW 15 24 29.99 1016 8 13 0.00 0.00
3:53 pm 15:53 Cloudy 28 -2.2 24 -4.4 85 85 SSW 9 15 29.98 1015 8 13 0.00 0.00
4:53 pm 16:53 Cloudy 28 -2.2 24 -4.4 85 85 SSW 12 19 29.98 1015 7 11 0.00 0.00
5:53 pm 17:53 Cloudy 28 -2.2 25 -3.9 88 88 SSW 9 15 29.97 1015 8 13 0.00 0.00
6:53 pm 18:53 Cloudy 28 -2.2 25 -3.9 88 88 SSW 9 15 29.98 1015 8 13 0.00 0.00
7:40 pm 19:40 Partly Cloudy 28 -2 25 -4 86 86 SSW 10 17 30.00 1016 7 11 0.00 0.00
7:53 pm 19:53 Clear 28 -2.2 24 -4.4 85 85 SSW 9 15 29.97 1015 7 11 0.00 0.00
8:53 pm 20:53 Clear 26 -3.3 23 -5 88 88 SSW 10 17 29.96 1015 7 11 0.00 0.00
9:53 pm 21:53 Clear 25 -3.9 22 -5.6 88 88 SSW 9 15 29.95 1014 7 11 0.00 0.00
10:53 pm 22:53 Clear 24 -4.4 21 -6.1 88 88 SSW 8 13 29.94 1014 7 11 0.00 0.00
11:53 pm 23:53 Clear with Mist and Fog 25 -3.9 21 -6.1 85 85 SSW 9 15 29.93 1013 6 10 0.00 0.00

Powered by AerisWeather